FW0430 Weather Reports


Display with metric or nautical units.
time (UTC)temp
F
wind
direction
speed
MPH
gust
MPH
rain 1hr
in
rain 24hr
in
rain mn
in
humidity
%
barometer
mb
20220809202401 86 147 0.0 0.0 0.00 0.00 0.00 61
20220809201855 86 111 0.0 0.0 0.00 0.00 0.00 61
20220809201349 85 141 0.0 0.0 0.00 0.00 0.00 62
20220809200843 86 143 0.0 0.0 0.00 0.00 0.00 62
20220809200337 87 160 0.0 0.0 0.00 0.00 0.00 63
20220809195831 87 17 0.0 0.0 0.00 0.00 0.00 62
20220809195325 86 119 0.0 0.0 0.00 0.00 0.00 61
20220809194819 86 142 0.0 0.0 0.00 0.00 0.00 61
20220809194313 86 153 0.0 0.0 0.00 0.00 0.00 62
20220809193807 86 81 0.0 0.0 0.00 0.00 0.00 61
20220809193301 86 155 0.0 0.0 0.00 0.00 0.00 62
20220809192755 85 146 0.0 0.0 0.00 0.00 0.00 63
20220809192249 85 58 0.0 0.0 0.00 0.00 0.00 63
20220809191743 85 164 0.0 0.0 0.00 0.00 0.00 64
20220809191237 85 161 0.0 0.0 0.00 0.00 0.00 65
20220809190731 84 116 0.0 0.0 0.00 0.00 0.00 65
20220809190225 84 135 0.0 0.0 0.00 0.00 0.00 65
20220809185719 84 121 0.0 0.0 0.00 0.00 0.00 68
20220809185213 84 161 0.0 0.0 0.00 0.00 0.00 68
20220809184707 84 144 0.0 0.0 0.00 0.00 0.00 68
20220809184201 83 161 0.0 0.0 0.00 0.00 0.00 69
20220809183655 83 118 0.0 0.0 0.00 0.00 0.00 70
20220809183149 83 203 0.0 0.0 0.00 0.00 0.00 70
20220809182643 83 139 0.0 0.0 0.00 0.00 0.00 70
20220809182137 83 176 0.0 0.0 0.00 0.00 0.00 69
20220809181631 83 206 0.0 0.0 0.00 0.00 0.00 68
20220809181125 83 197 0.0 0.0 0.00 0.00 0.00 68
20220809180619 82 187 0.0 0.0 0.00 0.00 0.00 68
20220809180113 82 163 0.0 0.0 0.00 0.00 0.00 70
20220809175607 82 129 0.0 0.0 0.00 0.00 0.00 70
20220809175101 82 150 0.0 0.0 0.00 0.00 0.00 71
20220809174555 82 150 0.0 0.0 0.00 0.00 0.00 72
20220809174049 82 164 0.0 0.0 0.00 0.00 0.00 73
20220809173543 81 138 0.0 0.0 0.00 0.00 0.00 73
20220809173037 81 161 0.0 0.0 0.00 0.00 0.00 73
20220809172531 81 159 0.0 0.0 0.00 0.00 0.00 73
20220809172025 81 156 0.0 0.0 0.00 0.00 0.00 75
20220809171519 80 131 0.0 0.0 0.00 0.00 0.00 75
20220809171013 80 151 0.0 0.0 0.00 0.00 0.00 75
20220809170507 80 148 0.0 0.0 0.00 0.00 0.00 75
20220809170001 80 150 0.0 0.0 0.00 0.00 0.00 74
20220809165455 80 135 0.0 0.0 0.00 0.00 0.00 75
20220809164949 80 145 0.0 0.0 0.00 0.00 0.00 75
20220809164443 80 144 0.0 0.0 0.00 0.00 0.00 76
20220809163937 80 149 0.0 0.0 0.00 0.00 0.00 79
20220809163431 79 123 0.0 0.0 0.00 0.00 0.00 80
20220809162925 79 97 0.0 0.0 0.00 0.00 0.00 80
20220809162419 78 116 0.0 0.0 0.00 0.00 0.00 80
20220809161913 78 149 0.0 0.0 0.00 0.00 0.00 82
20220809161407 77 123 0.0 0.0 0.00 0.00 0.00 83
20220809160901 77 127 0.0 0.0 0.00 0.00 0.00 85
20220809160355 77 155 0.0 0.0 0.00 0.00 0.00 87
20220809155849 76 136 0.0 0.0 0.00 0.00 0.00 88
20220809155343 76 138 0.0 0.0 0.00 0.00 0.00 88
20220809154837 76 150 0.0 0.0 0.00 0.00 0.00 88
20220809154331 76 148 0.0 0.0 0.00 0.00 0.00 88
20220809153825 75 149 0.0 0.0 0.00 0.00 0.00 89
20220809153319 75 132 0.0 0.0 0.00 0.00 0.00 90
20220809152813 75 133 0.0 0.0 0.00 0.00 0.00 91
20220809152307 75 137 0.0 0.0 0.00 0.00 0.00 91
20220809151801 75 90 0.0 0.0 0.00 0.00 0.00 91
20220809151255 75 98 0.0 0.0 0.00 0.00 0.00 92
20220809150749 75 128 0.0 0.0 0.00 0.00 0.00 93
20220809150243 75 123 0.0 0.0 0.00 0.00 0.00 93
20220809145737 75 138 0.0 0.0 0.00 0.00 0.00 94
20220809145231 74 144 0.0 0.0 0.00 0.00 0.00 94
20220809144725 74 150 0.0 0.0 0.00 0.00 0.00 98
20220809144219 73 165 0.0 0.0 0.00 0.00 0.00 99
20220809143713 72 107 0.0 0.0 0.00 0.00 0.00 100
20220809143207 72 155 0.0 0.0 0.00 0.00 0.00 100
20220809142701 71 125 0.0 0.0 0.00 0.00 0.00 100
20220809142155 71 139 0.0 0.0 0.00 0.00 0.00 100
20220809141649 71 143 0.0 0.0 0.00 0.00 0.00 100
20220809141143 71 110 0.0 0.0 0.00 0.00 0.00 100
20220809140637 71 115 0.0 0.0 0.00 0.00 0.00 100
20220809140131 70 117 0.0 0.0 0.00 0.00 0.00 100
20220809135625 70 118 0.0 0.0 0.00 0.00 0.00 100
20220809135119 70 114 0.0 0.0 0.00 0.00 0.00 100
20220809134613 70 112 0.0 0.0 0.00 0.00 0.00 100
20220809134107 70 109 0.0 0.0 0.00 0.00 0.00 100
20220809133601 69 105 0.0 0.0 0.00 0.00 0.00 100
20220809133055 69 104 0.0 0.0 0.00 0.00 0.00 100
20220809132549 69 105 0.0 0.0 0.00 0.00 0.00 100
20220809132043 69 108 0.0 0.0 0.00 0.00 0.00 100
20220809131537 68 105 0.0 0.0 0.00 0.00 0.00 100
20220809131031 68 135 0.0 0.0 0.00 0.00 0.00 100
20220809130525 68 124 0.0 0.0 0.00 0.00 0.00 100
20220809130019 68 128 0.0 0.0 0.00 0.00 0.00 100
20220809125513 68 104 0.0 0.0 0.00 0.00 0.00 100
20220809125007 68 104 0.0 0.0 0.00 0.00 0.00 100
20220809124501 68 104 0.0 0.0 0.00 0.00 0.00 100
20220809123955 68 103 0.0 0.0 0.00 0.00 0.00 100
20220809123449 68 103 0.0 0.0 0.00 0.00 0.00 100
20220809122943 68 104 0.0 0.0 0.00 0.00 0.00 100
20220809122437 68 104 0.0 0.0 0.00 0.00 0.00 100
20220809121931 68 104 0.0 0.0 0.00 0.00 0.00 100
20220809121425 68 104 0.0 0.0 0.00 0.00 0.00 100
20220809120919 68 104 0.0 0.0 0.00 0.00 0.00 100
20220809120413 68 104 0.0 0.0 0.00 0.00 0.00 100
20220809115907 68 106 0.0 0.0 0.00 0.00 0.00 100